This is the latest recevied weather packets stored in our database for station/object 9W3FAB-1. If no packets are shown the sender has not sent any weather packets the latest 10 day(s).
| Time | Temp. | Humidity | Pressure | Rain* | Wind** | Luminosity | Snow |
|---|---|---|---|---|---|---|---|
| 1777996946 | 27.22° C | 100% | 1008.2 hPa | - | - | - | - |
| 1777996045 | 27.78° C | 100% | 1008.3 hPa | - | - | - | - |
| 1777995144 | 27.22° C | 100% | 1008.3 hPa | - | - | - | - |
| 1777994244 | 27.22° C | 100% | 1008.4 hPa | - | - | - | - |
| 1777993343 | 27.78° C | 100% | 1008.2 hPa | - | - | - | - |
| 1777992442 | 27.78° C | 100% | 1008.2 hPa | - | - | - | - |
| 1777991541 | 27.78° C | 100% | 1008 hPa | - | - | - | - |
| 1777990640 | 27.78° C | 100% | 1008 hPa | - | - | - | - |
| 1777989739 | 28.33° C | 100% | 1007.8 hPa | - | - | - | - |
| 1777988838 | 27.78° C | 100% | 1007.9 hPa | - | - | - | - |
| 1777987937 | 28.33° C | 100% | 1007.8 hPa | - | - | - | - |
| 1777987037 | 28.33° C | 100% | 1007.7 hPa | - | - | - | - |
| 1777986136 | 27.78° C | 100% | 1007.7 hPa | - | - | - | - |
| 1777985235 | 28.33° C | 100% | 1007.5 hPa | - | - | - | - |
| 1777984334 | 28.33° C | 100% | 1007.5 hPa | - | - | - | - |
| 1777983433 | 28.89° C | 100% | 1007.1 hPa | - | - | - | - |
| 1777982532 | 30° C | 100% | 1006.6 hPa | - | - | - | - |
| 1777981632 | 30° C | 100% | 1006.1 hPa | - | - | - | - |
| 1777980731 | 30° C | 100% | 1005.8 hPa | - | - | - | - |
| 1777979830 | 30° C | 100% | 1005.6 hPa | - | - | - | - |
| 1777978929 | 29.44° C | 100% | 1005.5 hPa | - | - | - | - |
| 1777978028 | 30° C | 100% | 1005.2 hPa | - | - | - | - |
| 1777977127 | 30° C | 100% | 1004.8 hPa | - | - | - | - |
| 1777976226 | 30° C | 100% | 1004.7 hPa | - | - | - | - |
| 1777975325 | 30° C | 100% | 1004.4 hPa | - | - | - | - |
* Rain since midnight (hover to see other rain measurements)
** Current wind speed in m/s (hover to see current wind gust speed)